Погода в Звизжах

Россия / Калужская область     54°44′39″N   35°38′13″E
темп.,
°C
ветер,
м/с
пор.,
м/с
влажн.,
%
обл.,
%
осадки,
мм/ч
давл.,
гПа
погр.,
м
11 апреля, вс
вс1100:00+3ююз39740 0.0 1026170
03:00+2ююз28791 0.0 1026160
06:00+1ююз22835 0.0 102746
09:00+7ююз24614 0.0 1029293
12:00+12ююз34470 0.0 1029816
15:00+14ююз23410 0.0 10291336
18:00+13ююв11530 0.0 102918
21:00+8юв22650 0.0 103112
12 апреля, пн
пн1200:00+6вюв22720 0.0 103212
03:00+5в22780 0.0 103324
06:00+4в2782100 0.0 1033122
09:00+9в4115897 0.0 1032552
12:00+12в5940100 0.0 1030908
15:00+13вюв5762100 0.0 10281045
18:00+11вюв3875100 0.0 1027472
21:00+8в2892100 0.0 1027195
13 апреля, вт
вт1300:00+7в2495100 0.0 102677
03:00+7в2395100 0.0 102546
06:00+7вюв2291100 0.0 102424
09:00+11ююв2777100 0.0 1024218
12:00+17ююв3657100 0.0 1023617
15:00+18ююв4652100 0.0 10231057
18:00+17ююв375790 0.0 1022180
21:00+12юв3870100 0.0 1022134
14 апреля, ср
ср1400:00+10юв31074100 0.0 1022175
03:00+9юв3107810 0.0 1021193
06:00+8юв258077 0.0 102199
09:00+13ююв376357 0.0 1021303
12:00+17ююв4746100 0.0 1020865
15:00+19ююв474321 0.0 10181632
18:00+17юв374628 0.0 1018249
21:00+12вюв256192 0.0 101883
15 апреля, чт
чт1500:00+10вюв2266100 0.0 101821
03:00+9всв1167100 0.0 101710
06:00+9ююв1169100 0.0 101712
09:00+12ссв235999 0.0 1016161
12:00+17вюв2245100 0.0 1016839
15:00+17в1247100 0.0 10151969
18:00+14св236799 0.0 101547
21:00+10ссв71377100 0.2 1017489